CZ-6A DEB, 54968

Orbit data source: Space-Track

CZ-6A DEB, 54968 is space debris in SSO originally from a launch on Fri, 11 Nov 2022 UTC launched from the Taiyaun Space Center, China (TSC). Debris objects in space refer to the collection of defunct objects orbiting the Earth. Examples of debris include non-operational satellites, rocket bodies, and fragments generated from explosions, collisions, or faulty payload assembly.

Loading next visibility...
Identifier
54968, 2022-151TH
Orbit
SSO
Country
Flag of CNCN / PRC
Related business
Manufacturer
SAST
Mission
Spacecraft
Bus & Motor
Unknown
Mass
Unknown
Launch date (UTC)
2022-11-11 (4 years ago)
Launch vehicle
Unknown
Launch site
Taiyaun Space Center, China (TSC)
Object type
Payload
Rocket body
Debris
Shape & HBR
Unknown shape, 0.1 m
Radar Cross Section
Medium (>0.1 m² and <1 m²)

Expand to show TLE details & history
Last TLE update: 1 day ago

TLE from 1 day ago
0 CZ-6A DEB
1 54968U 22151TH  26263.16220171  .00006312  00000-0  90470-3 0  9997
2 54968  98.6269 337.4130 0064649 341.6676  18.2202 14.75502454204320
Epoch: 2026-09-20T03:53Z
TLE epoch observation values (Epoch: 2026-09-20T03:53:34.227Z)
Latitude
0.00002°
Longitude
-80.03996°
Altitude
603.451 km
Speed
7.581 km/s
True Right ascension
22h 29m 39s
True Declination
0° 00' 00"
Sunlit
Object was in full shadow at epoch
Visualization orbit readout
Latitude
Unknown
Longitude
Unknown
Altitude
Unknown
Speed
Unknown
Apparent Right ascension
Unknown
Apparent Declination
Unknown
Sunlit
N/A
Visualization observer readout
Local Sidereal Time
03:11:39
Azimuth
Unknown
Elevation
Unknown
Doppler factor
Unknown
Orbital elements
Apogee altitude
686.013 km
Perigee altitude
595.262 km
Semi-major axis
7,018.774 km
Eccentricity
0.00646
Inclination
98.6269°
RAAN
337.413°
Arg. of periapsis
341.6676°
True anomaly
18.45362°
Mean anomaly
18.2202°
Eccentric anomaly
18.33673°
Mean motion
3.69106 °/min
Orbital period
97.53 mins
BSTAR
0.0009047
Loading maneuver chart data...
Computing Atmospheric mass density...
Loading historical data...
Loading historical data...
Loading historical data...
Loading historical data...
Loading historical data...
Loading historical data...
Loading historical data...

Documentation

Showing up to 5 results
|